Change the Weather History Date:

Friday, April 11, 2014

  Actual Average (KDAY) Record (KDAY)
Temperature  
Mean Temperature 52 °F 50 °F  
Max Temperature 60 °F 60 °F 88 °F (1930)
Min Temperature 44 °F 40 °F 26 °F (1989)
Degree Days  
Heating Degree Days 13 15  
Month to date heating degree days 187  
Since 1 July heating degree days 5226  
Cooling Degree Days 0 0  
Month to date cooling degree days 0  
Year to date cooling degree days 0  
Growing Degree Days 2 (Base 50)    
Moisture  
Dew Point 46 °F    
Average Humidity 77    
Maximum Humidity 100    
Minimum Humidity 45    
Precipitation  
Precipitation 0.26 in 0.14 in 1.22 in (2013)
Month to date precipitation 1.43  
Year to date precipitation 9.72  
Snow  
Snow 0.00 in 0.00 in 0.10 in (1990)
Month to date snowfall 0.4  
Since 1 July snowfall 23.1  
Snow Depth -    
Sea Level Pressure  
Sea Level Pressure 29.99 in    
Wind  
Wind Speed 6 mph (West)    
Max Wind Speed 15 mph    
Max Gust Speed 22 mph    
Visibility 8 miles    
Events      
T = Trace of Precipitation, MM = Missing Value Source: NWS Daily Summary

Daily Weather History Graph

Daily Weather History Graph

Search for Another Location

Airport or City:

Trip Planner

Search our weather history database for the weather conditions in past years. The results will help you decide how hot, cold, wet, or windy it might be!

Date:

Astronomy

Apr. 11, 2014 Rise Set
Actual Time 7:03 AM EDT 8:10 PM EDT
Civil Twilight 6:35 AM EDT 8:38 PM EDT
Nautical Twilight 6:01 AM EDT 9:11 PM EDT
Astronomical Twilight 5:27 AM EDT 9:46 PM EDT
Moon 4:49 PM EDT (4/11) 4:58 AM EDT (4/11)
Length of Visible Light 14h 02m
Length of Day
13h 07m
Waxing Gibbous, 87% of the Moon is Illuminated
Apr 11
Waxing Gibbous
Apr 15
Full
Apr 22
Last Quarter
Apr 29
New
May 6
First Quarter

Hourly Weather History & Observations

Time (EDT) Temp. Windchill Dew Point Humidity Pressure Visibility Wind Dir Wind Speed Gust Speed Precip Events Conditions
12:10 AM 55.4 °F - 55.4 °F 100% 29.95 in 4.0 mi SW 8.1 mph - 0.02 in   Overcast
12:30 AM 53.6 °F - 53.6 °F 100% 29.96 in 4.0 mi SW 8.1 mph - 0.07 in   Overcast
12:50 AM 53.6 °F - 53.6 °F 100% 29.96 in 5.0 mi SSW 8.1 mph - 0.10 in   Overcast
1:10 AM 53.6 °F - 53.6 °F 100% 29.95 in 3.0 mi SSW 9.2 mph - 0.02 in   Overcast
1:30 AM 53.6 °F - 53.6 °F 100% 29.94 in 4.0 mi South 8.1 mph - 0.03 in   Overcast
1:50 AM 53.6 °F - 53.6 °F 100% 29.94 in 10.0 mi NW 4.6 mph - 0.04 in   Overcast
2:10 AM 53.6 °F - 53.6 °F 100% 29.94 in 6.0 mi Calm Calm - 0.00 in   Overcast
2:30 AM 53.6 °F - 53.6 °F 100% 29.94 in 9.0 mi Calm Calm - 0.00 in   Overcast
2:50 AM 53.6 °F - 53.6 °F 100% 29.94 in 5.0 mi Calm Calm - 0.00 in   Overcast
3:10 AM 53.6 °F - 53.6 °F 100% 29.94 in 5.0 mi Calm Calm - 0.02 in   Overcast
3:30 AM 53.6 °F - - N/A% 29.94 in 4.0 mi SSE 3.5 mph - 0.03 in   Mostly Cloudy
3:50 AM 53.6 °F - - N/A% 29.94 in 5.0 mi SE 3.5 mph - 0.03 in   Overcast
4:10 AM 51.8 °F - - N/A% 29.93 in 3.0 mi SE 6.9 mph - 0.01 in   Overcast
4:30 AM 53.6 °F - - N/A% 29.93 in 10.0 mi SSE 6.9 mph - 0.01 in   Overcast
4:50 AM 53.6 °F - - N/A% 29.92 in 10.0 mi SSE 6.9 mph - 0.01 in   Overcast
5:10 AM 53.6 °F - - N/A% 29.92 in 8.0 mi SSE 6.9 mph - 0.01 in   Overcast
5:30 AM 53.6 °F - - N/A% 29.92 in 5.0 mi South 5.8 mph - 0.06 in   Overcast
5:50 AM 53.6 °F - - N/A% 29.93 in 3.0 mi South 5.8 mph - 0.10 in   Overcast
6:10 AM 53.6 °F - - N/A% 29.94 in 4.0 mi South 4.6 mph - 0.03 in   Mostly Cloudy
6:30 AM 53.6 °F - - N/A% 29.94 in 5.0 mi Calm Calm - 0.05 in   Overcast
6:50 AM 51.8 °F - - N/A% 29.94 in 5.0 mi Calm Calm - 0.05 in   Mostly Cloudy
7:10 AM 51.8 °F - - N/A% 29.95 in 5.0 mi North 10.4 mph - 0.00 in   Overcast
7:30 AM 51.8 °F - - N/A% 29.96 in 7.0 mi North 8.1 mph - 0.01 in   Overcast
7:50 AM 48.2 °F - - N/A% 29.97 in 3.0 mi North 15.0 mph - 0.02 in   Overcast
8:10 AM 48.2 °F - - N/A% 29.96 in 6.0 mi NE 12.7 mph 19.6 mph 0.01 in   Overcast
8:50 AM 44.6 °F 37.8 °F 44.6 °F 100% 29.95 in 10.0 mi ENE 15.0 mph 21.9 mph 0.01 in   Scattered Clouds
9:10 AM 44.6 °F 39.2 °F 44.6 °F 100% 29.98 in 10.0 mi NNE 10.4 mph - 0.00 in   Mostly Cloudy
9:30 AM 46.4 °F 41.5 °F 44.6 °F 93% 29.99 in 10.0 mi NE 10.4 mph - 0.00 in   Overcast
9:50 AM 44.6 °F 38.8 °F 42.8 °F 93% 29.99 in 9.0 mi NE 11.5 mph - 0.00 in   Overcast
10:10 AM 46.4 °F 42.9 °F 44.6 °F 93% 29.99 in 10.0 mi ENE 6.9 mph - 0.00 in   Overcast
10:30 AM 46.4 °F 42.9 °F 44.6 °F 93% 29.98 in 10.0 mi ENE 6.9 mph - 0.00 in   Overcast
10:50 AM 48.2 °F - 44.6 °F 87% 29.99 in 10.0 mi NNE 6.9 mph - 0.00 in   Overcast
11:10 AM 48.2 °F - 46.4 °F 93% 29.99 in 10.0 mi NE 6.9 mph - 0.00 in   Overcast
11:30 AM 51.8 °F - 46.4 °F 82% 29.99 in 10.0 mi ENE 5.8 mph - 0.00 in   Overcast
11:50 AM 51.8 °F - 46.4 °F 82% 29.99 in 10.0 mi East 3.5 mph - 0.00 in   Overcast
12:10 PM 53.6 °F - 46.4 °F 77% 29.99 in 10.0 mi Calm Calm - 0.00 in   Mostly Cloudy
12:30 PM 53.6 °F - 50.0 °F 88% 29.99 in 10.0 mi Calm Calm - 0.00 in   Scattered Clouds
12:50 PM 55.4 °F - 51.8 °F 88% 29.99 in 10.0 mi Calm Calm - 0.00 in   Partly Cloudy
1:10 PM 55.4 °F - 50.0 °F 82% 30.00 in 10.0 mi West 3.5 mph - 0.00 in   Mostly Cloudy
1:30 PM 57.2 °F - 51.8 °F 82% 30.00 in 10.0 mi North 8.1 mph - 0.00 in   Overcast
1:50 PM 57.2 °F - 48.2 °F 72% 30.01 in 10.0 mi NW 8.1 mph - 0.00 in   Mostly Cloudy
2:10 PM 57.2 °F - 48.2 °F 72% 30.01 in 10.0 mi North 8.1 mph - 0.00 in   Scattered Clouds
2:30 PM 57.2 °F - 46.4 °F 67% 30.01 in 10.0 mi NW 8.1 mph - 0.00 in   Clear
2:50 PM 59.0 °F - 46.4 °F 63% 30.01 in 10.0 mi WNW 9.2 mph - 0.00 in   Clear
3:10 PM 59.0 °F - 42.8 °F 55% 30.01 in 10.0 mi NNW 9.2 mph - 0.00 in   Clear
3:30 PM 60.8 °F - 41.0 °F 48% 30.00 in 10.0 mi Calm Calm - 0.00 in   Clear
3:50 PM 60.8 °F - 39.2 °F 45% 30.00 in 10.0 mi WNW 3.5 mph - 0.00 in   Clear
4:10 PM 60.8 °F - 41.0 °F 48% 30.00 in 10.0 mi NW 4.6 mph - 0.00 in   Clear
4:30 PM 60.8 °F - 41.0 °F 48% 30.01 in 10.0 mi SW 3.5 mph - 0.00 in   Clear
4:50 PM 60.8 °F - 42.8 °F 52% 30.01 in 10.0 mi Calm Calm - 0.00 in   Partly Cloudy
5:10 PM 60.8 °F - 42.8 °F 52% 30.00 in 10.0 mi WNW 9.2 mph - 0.00 in   Partly Cloudy
5:30 PM 60.8 °F - 42.8 °F 52% 30.00 in 10.0 mi NW 5.8 mph - 0.00 in   Partly Cloudy
5:50 PM 60.8 °F - 42.8 °F 52% 30.01 in 10.0 mi WNW 6.9 mph - 0.00 in   Partly Cloudy
6:10 PM 60.8 °F - 42.8 °F 52% 30.01 in 10.0 mi West 5.8 mph - 0.00 in   Clear
6:30 PM 60.8 °F - 39.2 °F 45% 30.01 in 10.0 mi WSW 5.8 mph - 0.00 in   Clear
6:50 PM 60.8 °F - 42.8 °F 52% 30.01 in 10.0 mi West 9.2 mph - 0.00 in   Clear
7:10 PM 59.0 °F - 42.8 °F 55% 30.01 in 10.0 mi West 4.6 mph - 0.00 in   Clear
7:30 PM 57.2 °F - 44.6 °F 63% 30.01 in 10.0 mi WSW 3.5 mph - 0.00 in   Clear
7:50 PM 57.2 °F - 42.8 °F 59% 30.02 in 10.0 mi Calm Calm - 0.00 in   Clear
8:10 PM 55.4 °F - 44.6 °F 67% 30.01 in 10.0 mi Calm Calm - 0.00 in   Clear
8:30 PM 55.4 °F - 42.8 °F 63% 30.02 in 10.0 mi Calm Calm - 0.00 in   Clear
8:50 PM 55.4 °F - 42.8 °F 63% 30.03 in 10.0 mi Calm Calm - 0.00 in   Clear
9:10 PM 53.6 °F - 42.8 °F 67% 30.04 in 10.0 mi Calm Calm - 0.00 in   Clear
9:30 PM 51.8 °F - 44.6 °F 76% 30.05 in 10.0 mi Calm Calm - 0.00 in   Clear
9:50 PM 50.0 °F - 44.6 °F 82% 30.06 in 10.0 mi Calm Calm - 0.00 in   Clear
10:10 PM 50.0 °F - 44.6 °F 82% 30.07 in 10.0 mi Calm Calm - 0.00 in   Clear
10:30 PM 48.2 °F - 46.4 °F 93% 30.07 in 10.0 mi Calm Calm - 0.00 in   Clear
10:50 PM 48.2 °F - 44.6 °F 87% 30.07 in 10.0 mi South 3.5 mph - 0.00 in   Clear
11:10 PM 48.2 °F - 44.6 °F 87% 30.07 in 10.0 mi SSE 4.6 mph - 0.00 in   Clear
11:30 PM 48.2 °F - 44.6 °F 87% 30.07 in 10.0 mi SSE 4.6 mph - 0.00 in   Clear
11:50 PM 48.2 °F - 44.6 °F 87% 30.07 in 10.0 mi SSE 5.8 mph - 0.00 in   Clear